User: anonymous   Login
Location: Peebles
(55.6412°N, 3.1714°W)
Time: 17:49:16
(UTC+00:00)
Language:

FENGYUN 1C DEB - Orbit

View from above orbital plane
View from above orbital plane
View from above satellite
View from above satellite

Ground track
Ground track

The orbit data is extracted from the following two-line orbital elements,

1 30138U 99025ST  22332.12383075  .00000923  00000-0  50902-3 0  9994
2 30138  98.8653  19.9617 0021961  75.0220 311.1321 14.13907135816825
Epoch (UTC): 28 November 2022 02:58:18
Eccentricity: 0.0021961
inclination: 98.8653°
perigee height: 830 km
apogee height: 862 km
right ascension of ascending node: 19.9617°
argument of perigee: 75.0220°
revolutions per day: 14.13907135
mean anomaly at epoch: 311.1321°
orbit number at epoch: 81682

The dashed part of the orbit path shows where the satellite is in the earth's shadow,  

DLR